{"data":{"norad_id":57201,"intl_designator":"2023-091AM","name":"SITRO-AIS 9 (SHCHUKIN)","alt_names":[],"object_type":"PAYLOAD","status":"ACTIVE","operator":null,"country":"CIS","launch_date":"2023-06-27","launch_site_code":"VOSTO","launch_vehicle":null,"mission":null,"orbit_class":"UNKNOWN","rcs_meters":null,"size_class":null,"mass_kg":null,"dimensions":null,"purposes":["tech_demo"],"wikipedia_slug":null,"has_3d_model":false,"image_url":null,"decayed_at":null,"tle_current":{"epoch":"2026-05-25T04:10:16.497984Z","epoch_age_seconds":56507,"freshness":"FRESH","line1":"1 57201U 23091AM  26145.17380206  .00019553  00000+0  53871-3 0  9994","line2":"2 57201  97.5089 214.9295 0008156 147.8917 212.2826 15.37146786161216","mean_motion":15.37146786,"eccentricity":0.0008156,"inclination_deg":97.5089,"raan_deg":214.9295,"arg_perigee_deg":147.8917,"mean_anomaly_deg":212.2826,"bstar":0.00053871,"rev_number":16121,"period_min":93.680057956417,"perigee_km":448.97863230929,"apogee_km":460.12411358324,"semimajor_km":6832.6883729463,"source":"CELESTRAK","updated_at":"2026-05-25T13:38:25.533551Z"}}}